#timestamp,LO_Frequency,Hit,StdDev 
1677711615.6,286047002.7,N
1677711635.4,286047004.3,N
1677711655.3,286047004.3,N
1677711675.1,286047004.0,N
1677711695.9,286047003.7,N
1677711715.7,286047002.4,N
1677711735.5,286047000.1,N
1677711755.4,286047002.4,N
1677711775.2,286047000.2,N
1677711795.0,286047000.8,N
1677711796.0,286047000.8,N
1677711815.8,286047000.4,N
1677711835.6,286047001.2,N
1677711855.5,286047000.4,N
1677711875.3,286047000.1,N
1677711895.1,286046999.9,N
1677711915.9,286047000.7,N
1677711935.7,286047000.3,N
1677711955.5,286047002.3,N
1677711975.4,286046999.7,N
1677711995.2,286046999.7,N
1677712015.1,286047002.7,N
1677712016.0,286047002.7,N
1677712035.8,286047002.7,N
1677712055.6,286047000.3,N
1677712075.5,286047002.1,N
1677712095.3,286047001.7,N
1677712115.2,286047003.2,N
1677712135.9,286047002.3,N
1677712155.7,286047000.7,N
1677712175.6,286047000.5,N
1677712195.4,286047000.8,N
1677712215.2,286046998.2,N
1677712235.1,286047000.6,N
1677712236.0,286047000.6,N
1677712255.8,286047000.8,N
1677712275.7,286046998.8,N
1677712295.5,286046998.1,N
1677712315.3,286046998.6,N
1677712335.2,286046998.1,N
1677712355.0,286046999.0,N
1677712355.9,286046999.0,N
1677712375.8,286046998.3,N
1677712395.6,286047000.7,N
1677712415.4,286047000.8,N
1677712435.3,286047000.6,N
1677712455.1,286046999.9,N
1677712475.8,286047002.4,N
1677712495.7,286047000.2,N
1677712515.5,286047011.9,Y
1677712535.4,286047000.2,P
1677712555.2,286047001.8,P
1677712575.0,286047001.4,N
1677712575.9,286047001.4,N
1677712595.8,286047005.1,Y
1677712615.6,286047004.2,P
1677712635.4,286047002.4,N
1677712655.3,286047000.5,N
1677712675.1,286046998.6,N
1677712695.9,286047000.8,N
1677712715.7,286046998.7,N
1677712735.5,286046998.2,N
1677712755.4,286047000.5,N
1677712775.2,286047002.0,N
1677712795.0,286047002.0,N
1677712795.9,286047002.0,N
1677712815.8,286047001.8,N
1677712835.6,286046999.8,N
1677712855.5,286047000.8,N
1677712875.3,286047000.2,N
1677712895.1,286047000.7,N
1677712915.9,286046999.8,N
1677712935.7,286047002.1,N
1677712955.5,286047003.1,N
1677712975.4,286047003.4,N
1677712995.2,286047001.5,N
1677713015.1,286047001.9,N
1677713016.0,286047001.9,N
1677713035.8,286047002.8,N
1677713055.6,286047001.0,N
1677713075.5,286047002.6,N
1677713095.3,286047002.2,N
1677713115.2,286047003.9,N
1677713135.9,286047003.5,N
1677713155.7,286047004.1,N
1677713175.6,286047002.1,N
1677713195.4,286047000.3,N
1677713215.2,286047002.5,N
1677713235.1,286047001.3,N
1677713236.0,286047001.3,N
1677713255.8,286047005.4,Y
1677713275.7,286047001.5,P
1677713295.5,286047002.4,P
1677713315.3,286047001.7,P
1677713335.2,286047003.9,Y
1677713355.0,286047000.3,P
1677713355.9,286047000.3,N
1677713375.8,286047000.7,N
1677713395.6,286046998.3,N
1677713415.4,286046997.1,N
1677713435.3,286046996.9,N
1677713455.1,286046994.9,N
1677713475.9,286046997.4,N
1677713495.7,286046999.1,N
1677713515.5,286046999.1,N
1677713535.4,286046999.6,N
1677713555.2,286046998.1,N
1677713575.0,286046999.0,N
1677713606.0,286046996.9,E
1677713615.9,286047001.2,N
1677713635.7,286047002.1,P
1677713655.6,286047003.1,P
1677713675.4,286047004.4,Y
1677713695.3,286046998.1,P
1677713715.1,286046999.1,N
1677713716.0,286046999.1,N
1677713735.8,286046997.4,N
1677713755.7,286046997.8,N
1677713775.5,286046997.7,N
1677713795.4,286046995.4,Y
1677713815.2,286046997.0,P
1677713835.0,286046999.4,N
1677713835.9,286046999.4,N
1677713855.8,286047000.9,N
1677713875.6,286046998.3,N
1677713895.4,286047002.0,N
1677713915.3,286047003.2,N
1677713935.1,286047002.4,N
1677713955.9,286047001.0,N
1677713975.7,286047000.8,N
1677713995.5,286047000.6,N
1677714015.4,286046998.2,N
1677714035.2,286047000.3,N
1677714055.0,286046998.7,N
1677714055.9,286046998.7,N
1677714075.8,286047000.8,N
1677714095.6,286047000.1,N
1677714115.5,286047004.0,N
1677714135.3,286047004.3,N
1677714155.1,286047001.8,N
1677714175.9,286047000.3,N
1677714195.7,286047000.6,N
1677714215.5,286046999.7,N
1677714235.4,286047000.0,N
1677714255.2,286047000.8,N
1677714275.0,286047002.5,N
1677714275.9,286047002.5,N
1677714295.8,286047004.0,N
1677714315.6,286047002.6,N
1677714335.5,286047000.9,N
1677714355.3,286047002.3,N
1677714375.1,286047002.4,N
1677714395.9,286047000.6,N
1677714415.7,286047000.0,N
1677714435.6,286047002.0,N
1677714455.4,286046999.9,N
1677714475.2,286047004.1,N
1677714495.1,286047002.0,N
1677714496.0,286047002.0,N
1677714515.8,286047004.2,N
1677714535.6,286047005.7,Y
1677714555.5,286047005.9,P
1677714575.3,286047007.9,P
1677714595.2,286047006.6,N
1677714615.9,286047007.4,N
1677714635.7,286047005.5,N
1677714655.6,286047003.9,N
1677714675.4,286047001.6,N
1677714695.2,286047005.7,N
1677714715.1,286047005.8,N
1677714716.0,286047005.8,N
1677714735.8,286047003.6,N
1677714755.7,286047005.1,N
1677714775.5,286047006.8,Y
1677714795.3,286047001.8,P
1677714815.2,286047000.8,N
1677714835.0,286047002.7,N
1677714835.9,286047002.7,N
1677714855.7,286047000.3,N
1677714875.6,286046996.6,N
1677714895.4,286046997.9,N
1677714915.3,286046997.2,N
1677714935.1,286046998.1,N
1677714936.0,286046998.1,N
1677714955.8,286047001.2,N
1677714975.7,286046999.0,N
1677714995.5,286046999.1,N
1677715015.3,286047002.8,N
1677715035.2,286047000.5,N
1677715055.0,286047000.8,N
1677715055.9,286047000.8,N
1677715075.8,286047004.2,N
1677715095.6,286046999.8,N
1677715115.4,286047001.9,N
1677715135.3,286047004.4,N
1677715155.1,286047004.8,N
1677715175.8,286047004.5,N
1677715195.7,286047001.7,N
